Погода в Ла-Круа-Вальмере

Франция     43°12′19″N   6°34′07″E
темп.,
°C
ветер,
м/с
пор.,
м/с
влажн.,
%
обл.,
%
осадки,
мм/ч
давл.,
гПа
погр.,
м
18 мая, ср
ср1823:00+18зсз11704 0.0 101839
02:00+18с11695 0.0 101716
05:00+17с22711 0.0 101730
08:00+20св24681 0.0 1019257
11:00+23всв46545 0.0 1020651
14:00+24в574970 0.0 1020662
17:00+24в354850 0.0 1020582
20:00+22в2255100 0.0 1020137
19 мая, чт
чт1923:00+19св1164100 0.0 102226
02:00+18св2269100 0.0 102223
05:00+18с2274100 0.0 102223
08:00+21св396598 0.0 1024479
11:00+24вюв4654100 0.0 1024770
14:00+25вюв474940 0.0 1024782
17:00+25вюв344621 0.0 1024682
20:00+23в22545 0.0 1024150
20 мая, пт
пт2023:00+19св11685 0.0 102521
02:00+18с11695 0.0 102612
05:00+17с11715 0.0 102612
08:00+21св22605 0.0 1027144
11:00+25в32445 0.0 1027749
14:00+27юв33415 0.0 10261072
17:00+27ю34425 0.0 1024843
20:00+23юз35565 0.0 1024227
21 мая, сб
сб2123:00+19з33665 0.0 102463
02:00+19зсз226271 0.0 102323
05:00+18зсз22595 0.0 102221
08:00+21з12495 0.0 1022121
11:00+28юз24324 0.0 1021768
14:00+31юз56295 0.0 10191038
17:00+30зюз68315 0.0 1017672
20:00+25зюз36515 0.0 1017206
22 мая, вс
вс2223:00+20ссв11665 0.0 101781
02:00+18в238431 0.0 1016115
05:00+17всв249431 0.0 1016186
08:00+20всв35785 0.0 1016384
11:00+23всв57646 0.0 1016583
14:00+24всв686168 0.0 1015592
17:00+23в45625 0.0 1014534
20:00+21в33698 0.0 1014333